Farmingdale, NY

11:39 PM EDT on April 23, 2018 (GMT -0400)
Republic

Weather History for KFRG - November, 2013

Change the Weather History Date:

Saturday, November 23, 2013

  Actual Average Record
Temperature  
Mean Temperature 43 °F -  
Max Temperature 54 °F 49 °F 62 °F (1999)
Min Temperature 30 °F 35 °F 23 °F (2008)
Degree Days  
Heating Degree Days 22    
Moisture  
Dew Point 25 °F    
Average Humidity 52    
Maximum Humidity 80    
Minimum Humidity 31    
Precipitation  
Precipitation 0.00 in - - ()
Sea Level Pressure  
Sea Level Pressure 29.95 in    
Wind  
Wind Speed 12 mph (NW)    
Max Wind Speed 18 mph    
Max Gust Speed 33 mph    
Visibility 10 miles    
Events Snow    
Averages and records for this station are not official NWS values.
T = Trace of Precipitation, MM = Missing Value Source: NWS Daily Summary

Daily Weather History Graph

Daily Weather History Graph

Search for Another Location

Airport or City:

Astronomy

Nov. 23, 2013 Rise Set
Actual Time 6:49 AM EST 4:29 PM EST
Civil Twilight 6:20 AM EST 4:59 PM EST
Nautical Twilight 5:46 AM EST 5:33 PM EST
Astronomical Twilight 5:13 AM EST 6:06 PM EST
Moon 9:56 PM EST (11/23) 11:04 AM EST (11/23)
Length of Visible Light 10h 39m
Length of Day
9h 40m
Waning Gibbous, 70% of the Moon is Illuminated
Nov 23
Waning Gibbous
Nov 25
Last Quarter
Dec 2
New
Dec 9
First Quarter
Dec 17
Full

Hourly Weather History & Observations

Time (EST) Temp. Windchill Dew Point Humidity Pressure Visibility Wind Dir Wind Speed Gust Speed Precip Events Conditions
12:53 AM 54.0 °F - 48.0 °F 80% 29.90 in 10.0 mi WNW 10.4 mph - N/A   Overcast
1:42 AM 53.6 °F - 44.6 °F 72% 29.91 in 10.0 mi NNW 13.8 mph 19.6 mph N/A   Overcast
1:53 AM 53.1 °F - 42.1 °F 66% 29.91 in 10.0 mi NNW 10.4 mph 27.6 mph N/A   Overcast
2:53 AM 48.9 °F - 37.0 °F 64% 29.92 in 10.0 mi NW 13.8 mph 23.0 mph N/A   Clear
3:53 AM 46.0 °F 40.2 °F 34.0 °F 63% 29.93 in 10.0 mi NW 12.7 mph 20.7 mph N/A   Clear
4:53 AM 44.1 °F 37.7 °F 28.0 °F 53% 29.95 in 10.0 mi NW 12.7 mph 24.2 mph N/A   Clear
5:53 AM 41.0 °F 32.8 °F 28.0 °F 60% 29.97 in 10.0 mi NNW 16.1 mph 25.3 mph N/A   Clear
6:53 AM 39.9 °F 32.1 °F 27.0 °F 60% 30.00 in 10.0 mi NW 13.8 mph 23.0 mph N/A   Clear
7:53 AM 39.9 °F 32.5 °F 24.1 °F 53% 30.01 in 10.0 mi NNW 12.7 mph 23.0 mph N/A   Clear
8:53 AM 42.1 °F 34.5 °F 24.1 °F 49% 30.01 in 10.0 mi North 15.0 mph 23.0 mph N/A   Clear
9:53 AM 43.0 °F 34.8 °F 24.1 °F 47% 30.01 in 10.0 mi NNW 18.4 mph 24.2 mph N/A   Clear
10:53 AM 44.1 °F 37.7 °F 23.0 °F 43% 29.99 in 10.0 mi NNW 12.7 mph 21.9 mph N/A   Clear
11:53 AM 45.0 °F 38.5 °F 21.9 °F 40% 29.97 in 10.0 mi NNW 13.8 mph - N/A   Clear
12:53 PM 45.0 °F 39.7 °F 19.0 °F 36% 29.95 in 10.0 mi NW 10.4 mph - N/A   Clear
1:53 PM 46.0 °F 40.6 °F 17.1 °F 31% 29.92 in 10.0 mi NNW 11.5 mph 18.4 mph N/A   Clear
2:53 PM 45.0 °F 40.1 °F 16.0 °F 31% 29.91 in 10.0 mi WNW 9.2 mph - N/A   Clear
3:53 PM 44.1 °F 39.5 °F 16.0 °F 32% 29.91 in 10.0 mi WNW 8.1 mph - N/A   Clear
4:53 PM 43.0 °F 38.8 °F 16.0 °F 34% 29.90 in 10.0 mi WNW 6.9 mph - N/A   Clear
5:53 PM 42.1 °F 37.1 °F 16.0 °F 35% 29.91 in 10.0 mi West 8.1 mph 18.4 mph N/A   Clear
6:53 PM 41.0 °F 33.9 °F 17.1 °F 38% 29.91 in 10.0 mi WNW 12.7 mph 23.0 mph N/A   Clear
7:53 PM 36.0 °F 27.1 °F 27.0 °F 70% 29.93 in 10.0 mi NNW 13.8 mph 19.6 mph N/A   Mostly Cloudy
8:34 PM 32.0 °F 21.6 °F 26.6 °F 80% 29.95 in 2.5 mi NNW 15.0 mph 33.4 mph 0.00 in Snow Light Snow
8:41 PM 33.8 °F 24.3 °F 26.6 °F 75% 29.95 in 9.0 mi NW 13.8 mph 27.6 mph 0.00 in   Overcast
8:53 PM 34.0 °F 25.0 °F 23.0 °F 64% 29.95 in 10.0 mi NW 12.7 mph 25.3 mph 0.00 in   Overcast
9:53 PM 34.0 °F 25.0 °F 17.1 °F 50% 29.97 in 10.0 mi NW 12.7 mph 19.6 mph N/A   Clear
10:53 PM 32.0 °F 20.5 °F 7.0 °F 35% 29.98 in 10.0 mi WNW 18.4 mph 28.8 mph N/A   Clear
11:53 PM 30.9 °F 23.5 °F 12.0 °F 46% 29.98 in 10.0 mi NW 8.1 mph 17.3 mph N/A   Partly Cloudy